Skip to main content.
Our real time weather data display below is updated continuously via our 24/7 live data feed.
 TIME   TEMPERATURE   WINDSPEED   DIRECTION   HUMIDITY   BAROMETER   RAINFALL 
12:10 19.0°C (66.2°F) 22.2 kmh (13.8 mph) WSW 72% 1012.9hPa (29.91 inHg) 0.0mm (0.00 in.)
11:10 18.0°C (64.4 °F) 24.1 kmh (15.0 mph) WSW 77% 1012.9hPa (29.91 inHg) 0.0mm (0.00 in.)
10:10 17.0°C (62.6 °F) 24.1 kmh (15.0 mph) SW 82% 1012.9hPa (29.91 inHg) 0.0mm (0.00 in.)
9:04 16.0°C (60.8 °F) 16.7 kmh (10.4 mph) SW 87% 1012.9hPa (29.91 inHg) 0.0mm (0.00 in.)
8:04 15.0°C (59.0 °F) 13.0 kmh (8.1 mph) SSW 93% 1013.9hPa (29.94 inHg) 0.0mm (0.00 in.)
7:04 15.0°C (59.0 °F) 14.8 kmh (9.2 mph) SSW 87% 1012.9hPa (29.91 inHg) 0.0mm (0.00 in.)
6:04 15.0°C (59.0 °F) 14.8 kmh (9.2 mph) SSW 87% 1013.9hPa (29.94 inHg) 0.0mm (0.00 in.)
5:04 15.0°C (59.0 °F) 11.1 kmh (6.9 mph) SSW 87% 1013.9hPa (29.94 inHg) 0.0mm (0.00 in.)
4:04 14.0°C (57.2 °F) 11.1 kmh (6.9 mph) SSW 93% 1013.9hPa (29.94 inHg) 0.0mm (0.00 in.)
3:04 14.0°C (57.2 °F) 9.3 kmh (5.8 mph) SSW 93% 1014.9hPa (29.97 inHg) 0.0mm (0.00 in.)
2:04 14.0°C (57.2 °F) 11.1 kmh (6.9 mph) S 87% 1014.9hPa (29.97 inHg) 0.0mm (0.00 in.)
1:04 14.0°C (57.2 °F) 13.0 kmh (8.1 mph) SSW 87% 1015.9hPa (30.00 inHg) 0.0mm (0.00 in.)
0:04 13.0°C (55.4 °F) 11.1 kmh (6.9 mph) SSW 93% 1015.9hPa (30.00 inHg) 0.0mm (0.00 in.)
23:04 13.0°C (55.4 °F) 9.3 kmh (5.8 mph) SW 93% 1015.9hPa (30.00 inHg) 0.0mm (0.00 in.)
22:04 13.0°C (55.4 °F) 9.3 kmh (5.8 mph) SW 87% 1016.9hPa (30.03 inHg) 0.0mm (0.00 in.)
21:04 13.0°C (55.4 °F) 7.4 kmh (4.6 mph) WSW 87% 1015.9hPa (30.00 inHg) 0.0mm (0.00 in.)
20:04 14.0°C (57.2 °F) 9.3 kmh (5.8 mph) WSW 82% 1015.9hPa (30.00 inHg) 0.0mm (0.00 in.)
19:04 15.0°C (59.0 °F) 11.1 kmh (6.9 mph) W 76% 1015.9hPa (30.00 inHg) 0.0mm (0.00 in.)
18:04 17.0°C (62.6 °F) 16.7 kmh (10.4 mph) W 67% 1015.9hPa (30.00 inHg) 0.0mm (0.00 in.)
17:04 18.0°C (64.4 °F) 14.8 kmh (9.2 mph) WNW 63% 1015.9hPa (30.00 inHg) 0.0mm (0.00 in.)
16:04 18.0°C (64.4 °F) 16.7 kmh (10.4 mph) W 63% 1015.9hPa (30.00 inHg) 0.0mm (0.00 in.)
15:04 18.0°C (64.4 °F) 20.4 kmh (12.7 mph) WNW 63% 1015.9hPa (30.00 inHg) 0.0mm (0.00 in.)
14:04 18.0°C (64.4 °F) 18.5 kmh (11.5 mph) W 59% 1015.9hPa (30.00 inHg) 0.0mm (0.00 in.)
13:04 18.0°C (64.4 °F) 14.8 kmh (9.2 mph) W 55% 1015.9hPa (30.00 inHg) 0.0mm (0.00 in.)